{"data":{"norad_id":62084,"intl_designator":"2024-219D","name":"KINEIS-5A","alt_names":[],"object_type":"PAYLOAD","status":"ACTIVE","operator":null,"country":"FR","launch_date":"2024-11-25","launch_site_code":"RLLB","launch_vehicle":null,"mission":null,"orbit_class":"UNKNOWN","rcs_meters":null,"size_class":null,"mass_kg":null,"dimensions":null,"purposes":[],"wikipedia_slug":null,"has_3d_model":false,"image_url":null,"decayed_at":null,"tle_current":{"epoch":"2026-09-22T22:42:19.768032Z","epoch_age_seconds":96202,"freshness":"FRESH","line1":"1 62084U 24219D   26265.94606213 -.00002212  00000+0 -34304-3 0  9995","line2":"2 62084  97.9056  62.4419 0004435  12.4211 347.7105 14.72242977 98156","mean_motion":14.72242977,"eccentricity":0.0004435,"inclination_deg":97.9056,"raan_deg":62.4419,"arg_perigee_deg":12.4211,"mean_anomaly_deg":347.7105,"bstar":-0.00034304,"rev_number":9815,"period_min":97.809941870757,"perigee_km":650.79801508812,"apogee_km":657.03544674745,"semimajor_km":7032.0537309178,"source":"CELESTRAK","updated_at":"2026-09-23T09:00:21.211505Z"}}}